• Em Portugal
  • Lista de países
  • Para 7 dias
  • Temperatura da água
  • Mapas de satélite
  • Mapa do tempo
  • Widgets de tempo
  • user-avatar
    Iniciar Sessão

    Previsão horária em Yerevan

    Hoje, 22 Setembro, Sábado

    Tempo Temperatura Precipitação Vento Pressão Humidade
    00:00 +21°C° 0.4 mm 1 m/s 691 mmHg 64%
    01:00 +21°C° 0.4 mm 1 m/s 691 mmHg 66%
    02:00 +20°C° 0.4 mm 1 m/s 691 mmHg 68%
    03:00 +20°C° 0.4 mm 1 m/s 691 mmHg 69%
    04:00 +19°C° 0.3 mm 1 m/s 691 mmHg 70%
    05:00 +19°C° 0.3 mm 1 m/s 691 mmHg 71%
    06:00 +19°C° 0.3 mm 1 m/s 691 mmHg 73%
    07:00 +21°C° 0.1 mm 1 m/s 692 mmHg 64%
    08:00 +22°C° 0.1 mm 1 m/s 692 mmHg 56%
    09:00 +24°C° 0.1 mm 2 m/s 692 mmHg 48%
    10:00 +25°C° 0.1 mm 2 m/s 692 mmHg 44%
    11:00 +27°C° 0.1 mm 2 m/s 692 mmHg 40%
    12:00 +28°C° 0.1 mm 2 m/s 692 mmHg 36%
    13:00 +28°C° 0.2 mm 2 m/s 691 mmHg 35%
    14:00 +28°C° 0.2 mm 2 m/s 691 mmHg 35%
    15:00 +28°C° 0.2 mm 2 m/s 691 mmHg 34%
    16:00 +27°C° 0.4 mm 2 m/s 691 mmHg 38%
    17:00 +25°C° 0.4 mm 2 m/s 690 mmHg 43%
    18:00 +24°C° 0.4 mm 2 m/s 690 mmHg 47%
    19:00 +23°C° 0.4 mm 1 m/s 691 mmHg 51%
    20:00 +22°C° 0.4 mm 1 m/s 691 mmHg 54%
    21:00 +21°C° 0.4 mm 1 m/s 691 mmHg 57%
    22:00 +21°C° 0.1 mm 1 m/s 691 mmHg 60%
    23:00 +20°C° 0.1 mm 1 m/s 691 mmHg 62%

    Amanhã, 23 Setembro, Domingo

    Tempo Temperatura Precipitação Vento Pressão Humidade
    00:00 +20°C° 0.1 mm 1 m/s 691 mmHg 64%
    01:00 +19°C° 0 mm 1 m/s 691 mmHg 66%
    02:00 +19°C° 0 mm 1 m/s 691 mmHg 67%
    03:00 +19°C° 0 mm 1 m/s 691 mmHg 68%
    04:00 +18°C° 0 mm 1 m/s 690 mmHg 70%
    05:00 +18°C° 0 mm 1 m/s 690 mmHg 72%
    06:00 +18°C° 0 mm 1 m/s 690 mmHg 74%
    07:00 +20°C° 0 mm 1 m/s 691 mmHg 64%
    08:00 +22°C° 0 mm 1 m/s 691 mmHg 54%
    09:00 +24°C° 0 mm 1 m/s 691 mmHg 44%
    10:00 +25°C° 0 mm 1 m/s 691 mmHg 40%
    11:00 +27°C° 0 mm 1 m/s 691 mmHg 36%
    12:00 +28°C° 0 mm 2 m/s 691 mmHg 32%
    13:00 +28°C° 0.1 mm 2 m/s 690 mmHg 30%
    14:00 +29°C° 0.1 mm 2 m/s 690 mmHg 29%
    15:00 +29°C° 0.1 mm 2 m/s 690 mmHg 28%
    16:00 +27°C° 0.3 mm 2 m/s 689 mmHg 32%
    17:00 +25°C° 0.3 mm 1 m/s 689 mmHg 37%
    18:00 +23°C° 0.3 mm 1 m/s 689 mmHg 41%
    19:00 +23°C° 0.3 mm 1 m/s 689 mmHg 45%
    20:00 +22°C° 0.3 mm 1 m/s 690 mmHg 48%
    21:00 +21°C° 0.3 mm 1 m/s 691 mmHg 52%
    22:00 +20°C° 0.1 mm 2 m/s 691 mmHg 55%
    23:00 +19°C° 0.1 mm 2 m/s 691 mmHg 57%

    Depois de amanhã, 24 Setembro, Segunda-feira

    Tempo Temperatura Precipitação Vento Pressão Humidade
    00:00 +19°C° 0.1 mm 2 m/s 691 mmHg 60%
    01:00 +18°C° 0 mm 2 m/s 691 mmHg 64%
    02:00 +18°C° 0 mm 2 m/s 691 mmHg 68%
    03:00 +17°C° 0 mm 2 m/s 691 mmHg 71%
    04:00 +17°C° 0 mm 2 m/s 691 mmHg 73%
    05:00 +16°C° 0 mm 2 m/s 691 mmHg 74%
    06:00 +16°C° 0 mm 2 m/s 691 mmHg 75%
    07:00 +18°C° 0 mm 2 m/s 691 mmHg 64%
    08:00 +20°C° 0 mm 2 m/s 692 mmHg 53%
    09:00 +23°C° 0 mm 2 m/s 692 mmHg 43%
    10:00 +24°C° 0 mm 2 m/s 692 mmHg 38%
    11:00 +26°C° 0 mm 2 m/s 692 mmHg 33%
    12:00 +27°C° 0 mm 2 m/s 692 mmHg 28%
    13:00 +27°C° 0 mm 2 m/s 692 mmHg 27%
    14:00 +28°C° 0 mm 2 m/s 691 mmHg 27%
    15:00 +28°C° 0 mm 2 m/s 691 mmHg 26%
    16:00 +26°C° 0 mm 1 m/s 691 mmHg 29%
    17:00 +25°C° 0 mm 1 m/s 691 mmHg 33%
    18:00 +23°C° 0 mm 1 m/s 690 mmHg 37%
    19:00 +22°C° 0 mm 1 m/s 691 mmHg 40%
    20:00 +22°C° 0 mm 1 m/s 691 mmHg 43%
    21:00 +21°C° 0 mm 1 m/s 691 mmHg 46%
    22:00 +20°C° 0 mm 1 m/s 691 mmHg 48%
    23:00 +20°C° 0 mm 1 m/s 691 mmHg 51%

    25 Setembro, Terça-feira

    Tempo Temperatura Precipitação Vento Pressão Humidade
    00:00 +20°C° 0 mm 1 m/s 691 mmHg 54%
    01:00 +19°C° 0 mm 1 m/s 691 mmHg 55%
    02:00 +19°C° 0 mm 1 m/s 691 mmHg 57%
    03:00 +18°C° 0 mm 1 m/s 690 mmHg 58%
    04:00 +18°C° 0 mm 1 m/s 690 mmHg 57%
    05:00 +18°C° 0 mm 1 m/s 690 mmHg 57%
    06:00 +15°C° 0 mm 0 m/s 690 mmHg 57%
    07:00 +20°C° 0 mm 1 m/s 690 mmHg 49%
    08:00 +22°C° 0 mm 1 m/s 691 mmHg 40%
    09:00 +25°C° 0 mm 1 m/s 691 mmHg 32%
    10:00 +26°C° 0 mm 1 m/s 691 mmHg 29%
    11:00 +28°C° 0 mm 2 m/s 690 mmHg 27%
    12:00 +29°C° 0 mm 2 m/s 690 mmHg 24%
    13:00 +29°C° 0 mm 2 m/s 690 mmHg 23%
    14:00 +30°C° 0 mm 2 m/s 689 mmHg 23%
    15:00 +30°C° 0 mm 2 m/s 689 mmHg 22%
    16:00 +28°C° 0 mm 1 m/s 689 mmHg 26%
    17:00 +26°C° 0 mm 1 m/s 689 mmHg 29%
    18:00 +24°C° 0 mm 1 m/s 688 mmHg 33%
    19:00 +23°C° 0 mm 1 m/s 689 mmHg 37%
    20:00 +23°C° 0 mm 1 m/s 689 mmHg 40%
    21:00 +21°C° 0 mm 2 m/s 690 mmHg 44%
    22:00 +21°C° 0 mm 2 m/s 689 mmHg 48%
    23:00 +20°C° 0 mm 2 m/s 689 mmHg 52%

    26 Setembro, Quarta-feira

    Tempo Temperatura Precipitação Vento Pressão Humidade
    00:00 +20°C° 0 mm 2 m/s 689 mmHg 56%
    01:00 +19°C° 0 mm 2 m/s 689 mmHg 58%
    02:00 +19°C° 0 mm 2 m/s 689 mmHg 61%
    03:00 +18°C° 0 mm 2 m/s 689 mmHg 63%
    04:00 +18°C° 0 mm 2 m/s 689 mmHg 65%
    05:00 +17°C° 0 mm 2 m/s 689 mmHg 67%
    06:00 +17°C° 0 mm 2 m/s 689 mmHg 69%
    07:00 +19°C° 0 mm 2 m/s 689 mmHg 60%
    08:00 +21°C° 0 mm 2 m/s 690 mmHg 51%
    09:00 +24°C° 0 mm 2 m/s 690 mmHg 43%
    10:00 +25°C° 0 mm 2 m/s 690 mmHg 39%
    11:00 +26°C° 0 mm 2 m/s 689 mmHg 35%
    12:00 +28°C° 0 mm 2 m/s 689 mmHg 32%
    13:00 +28°C° 0.1 mm 2 m/s 689 mmHg 31%
    14:00 +28°C° 0.1 mm 2 m/s 688 mmHg 30%
    15:00 +29°C° 0.1 mm 2 m/s 688 mmHg 29%
    16:00 +27°C° 0.2 mm 2 m/s 688 mmHg 34%
    17:00 +25°C° 0.2 mm 2 m/s 687 mmHg 39%
    18:00 +24°C° 0.2 mm 2 m/s 687 mmHg 44%
    19:00 +23°C° 0.1 mm 2 m/s 687 mmHg 49%
    20:00 +21°C° 0.1 mm 3 m/s 688 mmHg 54%
    21:00 +20°C° 0.1 mm 3 m/s 688 mmHg 60%
    22:00 +20°C° 0 mm 3 m/s 688 mmHg 61%
    23:00 +19°C° 0 mm 2 m/s 688 mmHg 63%

    27 Setembro, Quinta-feira

    Tempo Temperatura Precipitação Vento Pressão Humidade
    00:00 +19°C° 0 mm 2 m/s 688 mmHg 64%
    01:00 +18°C° 0 mm 2 m/s 688 mmHg 66%
    02:00 +18°C° 0 mm 2 m/s 687 mmHg 67%
    03:00 +18°C° 0 mm 2 m/s 687 mmHg 68%
    04:00 +18°C° 0 mm 2 m/s 687 mmHg 70%
    05:00 +18°C° 0 mm 2 m/s 687 mmHg 71%
    06:00 +17°C° 0 mm 2 m/s 687 mmHg 73%
    07:00 +20°C° 0 mm 3 m/s 688 mmHg 65%
    08:00 +22°C° 0 mm 3 m/s 688 mmHg 56%
    09:00 +25°C° 0 mm 4 m/s 688 mmHg 48%
    10:00 +26°C° 0.1 mm 4 m/s 688 mmHg 43%
    11:00 +28°C° 0.1 mm 5 m/s 688 mmHg 39%
    12:00 +29°C° 0.1 mm 5 m/s 687 mmHg 34%
    13:00 +29°C° 0.1 mm 6 m/s 687 mmHg 33%
    14:00 +30°C° 0.1 mm 6 m/s 686 mmHg 32%
    15:00 +30°C° 0.1 mm 6 m/s 686 mmHg 31%
    16:00 +29°C° 0.2 mm 5 m/s 686 mmHg 34%
    17:00 +27°C° 0.2 mm 4 m/s 686 mmHg 37%
    18:00 +26°C° 0.2 mm 3 m/s 686 mmHg 40%
    19:00 +25°C° 0.2 mm 4 m/s 687 mmHg 45%
    20:00 +23°C° 0.2 mm 4 m/s 687 mmHg 49%
    21:00 +22°C° 0.2 mm 4 m/s 687 mmHg 54%
    22:00 +21°C° 0 mm 3 m/s 687 mmHg 57%
    23:00 +21°C° 0 mm 3 m/s 688 mmHg 59%
    Mostrar mais